COSMOS 1285 DEB, 13961

Orbit data source: Space-Track

COSMOS 1285 DEB, 13961 is space debris in HEO originally from a launch on Tue, 04 Aug 1981 UTC launched from the Plesetsk Missile And Space Complex (PKMTR). Debris objects in space refer to the collection of defunct objects orbiting the Earth. Examples of debris include non-operational satellites, rocket bodies, and fragments generated from explosions, collisions, or faulty payload assembly.

Loading next visibility...
COSMOS 1285 DEB details
Identifier
13961, 1981-071F
Orbit
HEO
Last TLE update1 day ago
Origin
Flag of CISGUKOS (CIS)
ManufacturerUnknown
MissionSpacecraft
Bus & MotorUnknown
MassUnknown
Launch date (UTC)
1981-08-04 (43 years ago)
Launch vehicleUnknown
Launch site
Plesetsk Missile And Space Complex (PKMTR)
Object type
Payload
Rocket body
Debris
Shape & HBRUnknown
Radar Cross SectionLarge (>1 m²)

Expand to show TLE details & history

TLE from 1 day ago
0 COSMOS 1285 DEB
1 13961U 81071F   24360.32041544  .00000139  00000-0  00000-0 0  9998
2 13961  69.8950 103.8055 5847066 353.7775   1.2567  1.98110463311609
Epoch: 2024-12-25T07:41Z
Definitive object data (Epoch: 2024-12-25T07:41:23.894Z)
Latitude-0.00016°
Longitude-105.86175°
Altitude4,756.728 km
Speed7.531 km/s
True Right ascension06h 55m 12s
True Declination0° 00' 01"
Sunlit
Object was in full shadow at TLE epoch
Visualization TLE readout
Latitude52.78414°
Longitude45.41266°
Altitude21,277.626 km
Speed3.736 km/s
Apparent Right ascension17h 52m 27s
Apparent Declination42° 42' 24"
Sunlit
Object is in daylight
Visualization observer readout
Local Sidereal Time09:14:04
Azimuth34.602° NE
Elevation4.357°
Doppler factor1
Orbital elements
Apogee altitude36,057.42 km
Perigee altitude4,742.664 km
Semi-major axis26,778.179 km
Eccentricity0.5847066
Inclination69.895°
RAAN103.8055°
Arg. of periapsis353.7775°
True anomaly5.90345°
Mean anomaly1.2567°
Eccentric anomaly3.02408°
Mean motion0.4953 °/min
BSTARUnknown
Orbital period726.83 mins
Loading maneuver chart data...
Loading historical data...
Loading historical data...
Loading historical data...
Loading historical data...
Loading historical data...
Loading historical data...
Loading historical data...

COSMOS 1285 DEB Visibility forecast

Observer location: undefined°, undefined

Span
Click to sort rows by Start time (UTC) header in descending order
Start Az.
Max El. time (UTC)
Max El. Az.
Max El.
End time (UTC)
End Az.
206 mins2024-12-26 21:00:58.517Z338.522° N2024-12-26 22:08:58.517Z305.387° NW29.067°2024-12-27 00:26:58.517Z281.374° WNW
102 mins2024-12-27 08:07:58.517Z195.1° SSW2024-12-27 08:28:58.517Z110.203° ESE44.924°2024-12-27 09:49:58.517Z33.192° NE
|